South Lake Tahoe, CA

10:12 PM PDT on August 22, 2019 (GMT -0700)
Lake Tahoe

Weather History for KTVL - July, 2019

Change the Weather History Date:

Monday, July 15, 2019

  Actual Average Record
Temperature  
Mean Temperature 60 °F 61 °F  
Max Temperature 79 °F 81 °F 90 °F (1972)
Min Temperature 41 °F 42 °F 30 °F (1993)
Degree Days  
Heating Degree Days 5 4  
Month to date heating degree days 107 78  
Since 1 June heating degree days 352 388  
Since 1 July heating degree days 107 78  
Cooling Degree Days 0 1  
Month to date cooling degree days 0 3  
Year to date cooling degree days 0 4  
Since 1 June cooling degree days 0 4  
Growing Degree Days 10 (Base 50)    
Moisture  
Dew Point 37 °F    
Average Humidity 48    
Maximum Humidity 77    
Minimum Humidity 19    
Precipitation  
Precipitation 0.00 in - 0.14 in (1990)
Month to date precipitation 0.00  
Year to date precipitation 17.74  
Sea Level Pressure  
Sea Level Pressure 30.08 in    
Wind  
Wind Speed 5 mph (SSW)    
Max Wind Speed 18 mph    
Max Gust Speed 27 mph    
Visibility 10 miles    
Events      
T = Trace of Precipitation, MM = Missing Value Source: NWS Daily Summary

Daily Weather History Graph

Daily Weather History Graph

Search for Another Location

Airport or City:

Astronomy

Jul. 15, 2019 Rise Set
Actual Time 5:46 AM PDT 8:24 PM PDT
Civil Twilight 5:15 AM PDT 8:55 PM PDT
Nautical Twilight 4:36 AM PDT 9:34 PM PDT
Astronomical Twilight 3:53 AM PDT 10:17 PM PDT
Moon 7:46 PM PDT (7/15) 4:38 AM PDT (7/15)
Length of Visible Light 15h 39m
Length of Day
14h 37m
Waxing Gibbous, 99% of the Moon is Illuminated
Jul 15
Waxing Gibbous
Jul 16
Full
Jul 24
Last Quarter
Jul 31
New
Aug 7
First Quarter

Hourly Weather History & Observations

Time (PDT) Temp. Windchill Dew Point Humidity Pressure Visibility Wind Dir Wind Speed Gust Speed Precip Events Conditions
12:53 AM 50.0 °F - 34.0 °F 54% 30.12 in 10.0 mi SSW 3.5 mph - N/A   Clear
1:53 AM 46.9 °F - 35.1 °F 63% 30.12 in 10.0 mi Calm Calm - N/A   Clear
2:53 AM 46.9 °F - 34.0 °F 61% 30.12 in 10.0 mi Calm Calm - N/A   Clear
3:53 AM 45.0 °F 43.5 °F 33.1 °F 63% 30.12 in 10.0 mi South 3.5 mph - N/A   Clear
4:53 AM 42.1 °F 39.2 °F 33.1 °F 70% 30.13 in 10.0 mi SSW 4.6 mph - N/A   Clear
5:53 AM 41.0 °F 39.0 °F 33.1 °F 73% 30.14 in 10.0 mi South 3.5 mph - N/A   Clear
6:53 AM 43.0 °F 41.3 °F 33.1 °F 68% 30.14 in 10.0 mi South 3.5 mph - N/A   Clear
7:53 AM 55.9 °F - 39.0 °F 53% 30.11 in 10.0 mi Calm Calm - N/A   Clear
8:53 AM 69.1 °F - 37.0 °F 31% 30.09 in 10.0 mi Variable 4.6 mph - N/A   Clear
9:53 AM 73.0 °F - 28.9 °F 20% 30.08 in 10.0 mi South 11.5 mph 19.6 mph N/A   Clear
10:53 AM 75.9 °F - 30.9 °F 19% 30.07 in 10.0 mi SSW 11.5 mph 19.6 mph N/A   Clear
11:53 AM 75.0 °F - 30.9 °F 20% 30.09 in 10.0 mi South 8.1 mph 18.4 mph N/A   Clear
12:53 PM 75.0 °F - 30.9 °F 20% 30.09 in 10.0 mi Variable 5.8 mph 19.6 mph N/A   Clear
1:53 PM 78.1 °F - 33.1 °F 19% 30.08 in 10.0 mi SW 8.1 mph 19.6 mph N/A   Clear
2:53 PM 75.9 °F - 34.0 °F 22% 30.07 in 10.0 mi WSW 8.1 mph - N/A   Clear
3:53 PM 75.9 °F - 37.0 °F 24% 30.06 in 10.0 mi SW 9.2 mph 26.5 mph N/A   Clear
4:53 PM 75.9 °F - 39.0 °F 26% 30.07 in 10.0 mi South 9.2 mph - N/A   Clear
5:53 PM 73.0 °F - 39.9 °F 30% 30.06 in 10.0 mi South 8.1 mph - N/A   Clear
6:53 PM 71.1 °F - 42.1 °F 35% 30.07 in 10.0 mi SSW 5.8 mph - N/A   Clear
7:53 PM 66.9 °F - 44.1 °F 44% 30.04 in 10.0 mi SW 4.6 mph - N/A   Clear
8:53 PM 63.0 °F - 46.0 °F 54% 30.03 in 10.0 mi Variable 4.6 mph - N/A   Clear
9:53 PM 60.1 °F - 45.0 °F 57% 30.02 in 10.0 mi Calm Calm - N/A   Clear
10:53 PM 57.0 °F - 45.0 °F 64% 30.02 in 10.0 mi SSW 3.5 mph - N/A   Clear
11:53 PM 52.0 °F - 44.1 °F 74% 30.03 in 10.0 mi SSW 4.6 mph - N/A   Clear